Other Surface Observations
Issued by NWS

Home | Current Version | Previous Version | Text Only | Print | Product List | Glossary On
Versions: 1 2 3 4 5 6 7 8 9 10 11 12 13 14 15 16 17 18 19 20 21 22 23 24 25 26 27 28 29 30 31 32 33 34 35 36 37 38 39 40 41 42 43 44 45 46 47 48 49 50
000
SXUS52 KTAE 281718
OSOTAE
OSOTAE
North Florida/South Alabama/Southwest Georgia Weather Roundup
National Weather Service Tallahassee Florida
100 PM EDT FRI JUL 28 2017

Note: "fair" indicates few or no clouds below 12,000 feet with no
significant weather and/or obstructions to visibility.

!FLZ017-115-028-034-025-281800
...North Florida...

CITY           SKY/WX    TMP DP  RH WIND       PRES   REMARKS
TALLAHASSEE    PTSUNNY   93  74  53 W8        29.94F HX 103
APALACHICOLA   MOSUNNY   90  76  63 W12G22    29.95F HX 101
PERRY          MOSUNNY   91  74  58 W5        29.95F HX 100
CROSS CITY     MOSUNNY   90  76  63 W9        30.00S HX 102
JACKSONVILLE   PTSUNNY   89  76  65 W9        29.92F HX 100
$$

!FLZ112-006-005-002-011-281800
...Florida Panhandle...

CITY           SKY/WX    TMP DP  RH WIND       PRES   REMARKS
MARIANNA       MOSUNNY   91  76  61 W8        29.94F HX 103
BONIFAY        NOT AVBL
PANAMA CITY NW FAIR      93  75  55 VRB6      29.94F HX 104
TYNDALL AFB    SUNNY     90  76  64 W12       29.96S HX 101
TYND DRONE APT FAIR      88  77  71 W7        29.96S HX 100
DE FUNIAK SPR  FAIR      90  73  57 NW7       29.96F HX  98
EGLIN AFB      MOSUNNY   93  72  50 NW7       29.94F HX 100
DESTIN         MOSUNNY   91  76  61 SW5       29.94F HX 103
HURLBURT       MOSUNNY   92  70  47 N9        29.93F HX  98
CRESTVIEW      SUNNY     93  73  52 W8        29.96F HX 102
PENSACOLA      SUNNY     94  73  50 W9        29.95F HX 103
$$

!ALZ063-066-281800
...South Alabama...

CITY           SKY/WX    TMP DP  RH WIND       PRES   REMARKS
DOTHAN         MOSUNNY   92  74  55 W12       29.98F HX 101
OZARK CAIRNS   MOSUNNY   92  74  55 W8        29.94F HX 102
FT RUCKER HELI SUNNY     91  75  61 W6        29.94F HX 101
RUCKER HELI 3  FAIR      90  74  59 W6        29.95F HX  99
RUCKER HELI 2  FAIR      91  73  55 NW7       29.93F HX 100
FLORALA APT    SUNNY     91  71  51 CALM      29.96F HX  97
ANDALUSIA      MOSUNNY   94  72  48 SW12      29.95F HX 102
TROY           MOSUNNY   90  74  59 NW8       29.96F HX  99
EUFALA         FAIR      94  75  54 VRB7      29.93F HX 105
MOBILE         PTSUNNY   90  71  53 W6        29.98F HX  96
$$

!GAZ120>161-281800
...Southwest and South Central Georgia...

CITY           SKY/WX    TMP DP  RH WIND       PRES   REMARKS
THOMASVILLE    FAIR      91  73  55 CALM      29.95F HX 100
BAINBRIDGE     SUNNY     93  81  66 W9        29.94F HX 113
MOODY AFB      PTSUNNY   92  74  55 W10       29.93F HX 101
VALDOSTA       MOSUNNY   92  74  55 VRB6      29.94F HX 101
MOULTRIE       SUNNY     91  73  55 SW9       29.95F HX 100
BLAKELY        MOSUNNY   91  72  52 W5        29.94F HX  98
ALBANY         PTSUNNY   93  74  53 W10       29.94F HX 103
TIFTON         FAIR      89  75  63 W9        29.93F HX  99
FITZGERALD     PTSUNNY   93  76  56 W6        29.95F HX 105
CORDELE        FAIR      96  73  48 NW8       29.94F HX 105
AMERICUS       PTSUNNY   90  68  48 NW10      29.96S HX  93
HOMERVILLE     FAIR      91  75  59 W8        29.94F HX 102
$$

!GMZ750-755-770-775-281800
...Coastal and Buoy Obs...

STATION/POSITION TIME  TEMP    WIND        PRES    VSBY  WAVE
                       AIR SEA DIR/SP/G                  HT/PER
                 (UTC) (F)     (DEG/KT/KT) (MB)    (MI)  (FT/S)
KEATON BEACH     1700   86     280/  7/ 10 1014.2F
CEDAR KEY        1700   87     250/  6/  9 1014.9F
C TOWER          1700   85                 1015.1F
APALACHICOLA BUO 1650   84 87  260/ 10/ 10 1014.9S         1/ 9
PANAMA CITY BUOY 1650   85 86  280/  8/  8 1015.0S         1/ 9
MOBILE BUOY      1700   85 87  250/  2/  4 1015.4
ORANGE BCH AL BU 1650   85 87  300/ 12/ 14 1014.3F         2/ 4
$$




USA.gov is the U.S. government's official web portal to all federal, state and local government web resources and services.